Location: Prague
(50.0830°N, 14.4670°E)
Time: 02:30:55
(UTC+01:00)

AO-7 - Pass Details

Date: 17 December 2021
Orbit: 1440 x 1459 km, 101.9° (Epoch: 28 January)

Event Time Altitude Azimuth Distance (km) Brightness Sun altitude
Rises 04:52:52 0° 19° (NNE) 4,554 ? -28.0°
Reaches altitude 10° 04:55:39 10° 19° (NNE) 3,575 ? -27.6°
Maximum altitude 05:04:01 86° 292° (WNW) 1,461 ? -26.2°
Drops below altitude 10° 05:12:22 10° 205° (SSW) 3,569 ? -24.9°
Sets 05:15:08 0° 205° (SSW) 4,546 ? -24.5°
